Weather History for VILK - April, 2014

Change the Weather History Date:

Friday, April 11, 2014

  Actual Average Record
Temperature  
Mean Temperature 77 °F -  
Max Temperature 98 °F 97 °F 105 °F (2003)
Min Temperature 56 °F 74 °F 56 °F (2014)
Cooling Degree Days 12    
Growing Degree Days 27 (Base 50)    
Moisture  
Dew Point 45 °F    
Average Humidity 27    
Maximum Humidity 63    
Minimum Humidity 7    
Precipitation  
Precipitation 0.00 in - - ()
Sea Level Pressure  
Sea Level Pressure 29.78 in    
Wind  
Wind Speed 5 mph ()    
Max Wind Speed 14 mph    
Max Gust Speed -    
Visibility 2.7 miles    
Events      
Averages and records for this station are not official NWS values.
T = Trace of Precipitation, MM = Missing Value Source: Averaged Metar Reports

Daily Weather History Graph

Daily Weather History Graph

Search for Another Location

Airport or City:

Trip Planner

Search our weather history database for the weather conditions in past years. The results will help you decide how hot, cold, wet, or windy it might be!

Date:

Astronomy

Apr. 11, 2014 Rise Set
Actual Time 5:47 AM IST 6:28 PM IST
Civil Twilight 5:23 AM IST 6:51 PM IST
Nautical Twilight 4:55 AM IST 7:19 PM IST
Astronomical Twilight 4:27 AM IST 7:47 PM IST
Moon 3:01 PM IST (4/11) 3:05 AM IST (4/11)
Length of Visible Light 13h 28m
Length of Day
12h 41m
Waxing Gibbous, 84% of the Moon is Illuminated
Apr 11
Waxing Gibbous
Apr 15
Full
Apr 22
Last Quarter
Apr 29
New
May 7
First Quarter

Hourly Weather History & Observations

Time (IST) Temp. Dew Point Humidity Pressure Visibility Wind Dir Wind Speed Gust Speed Precip Events Conditions
12:00 AM 71.6 °F 42.8 °F 35% 29.80 in 2.5 mi Variable 2.3 mph - N/A   Haze
1:00 AM 69.8 °F 42.8 °F 38% 29.80 in 2.5 mi Variable 2.3 mph - N/A   Haze
2:30 AM 65 °F 54 °F 58% 29.83 in 2 mi 2.3 mph - -   Haze
3:00 AM 64.4 °F 44.6 °F 49% 29.80 in 2.5 mi Variable 2.3 mph - N/A   Haze
4:00 AM 60.8 °F 46.4 °F 59% 29.80 in 2.5 mi Calm Calm - N/A   Haze
5:00 AM 62.6 °F 46.4 °F 55% 29.80 in 2.5 mi Calm Calm - N/A   Haze
5:30 AM 63 °F 49 °F 51% 29.80 in 1 mi Calm Calm - -   Haze
5:30 AM 62.6 °F 50.0 °F 63% 29.80 in 2.5 mi Calm Calm - N/A   Haze
6:00 AM 62.6 °F 48.2 °F 59% 29.83 in 2.5 mi Calm Calm - N/A   Haze
7:00 AM 68.0 °F 51.8 °F 56% 29.83 in 2.5 mi Calm Calm - N/A   Haze
8:30 AM 81 °F 46 °F 19% 29.85 in 2 mi West 6.9 mph - -   Haze
9:30 AM 89.6 °F 50.0 °F 26% 29.86 in 3.1 mi WNW 6.9 mph - N/A   Haze
10:00 AM 91.4 °F 50.0 °F 24% 29.86 in 3.1 mi West 9.2 mph - N/A   Haze
10:30 AM 93.2 °F 50.0 °F 23% 29.86 in 3.1 mi West 6.9 mph - N/A   Haze
11:00 AM 95.0 °F 46.4 °F 19% 29.86 in 3.1 mi West 11.5 mph - N/A   Haze
11:30 AM 94 °F 45 °F 11% 29.84 in 2 mi West 12.7 mph - -   Haze
11:30 AM 96.8 °F 42.8 °F 16% 29.83 in 3.1 mi West 12.7 mph - N/A   Haze
12:00 PM 96.8 °F 44.6 °F 17% 29.83 in 3.1 mi WNW 11.5 mph - N/A   Haze
12:30 PM 96.8 °F 44.6 °F 17% 29.83 in 3.1 mi WNW 10.4 mph - N/A   Haze
1:00 PM 98.6 °F 44.6 °F 16% 29.80 in 3.1 mi West 10.4 mph - N/A   Haze
1:30 PM 98.6 °F 42.8 °F 15% 29.77 in 3.1 mi WNW 11.5 mph - N/A   Haze
2:00 PM 98.6 °F 41.0 °F 14% 29.77 in 3.1 mi NW 13.8 mph - N/A   Haze
2:30 PM 98 °F 42 °F 8% 29.75 in 2 mi WNW 13.8 mph - -   Haze
2:30 PM 100.4 °F 41.0 °F 13% 29.74 in 3.1 mi WNW 13.8 mph - N/A   Haze
3:00 PM 100.4 °F 42.8 °F 14% 29.74 in 3.1 mi NW 11.5 mph - N/A   Partly Cloudy
3:30 PM 100.4 °F 41.0 °F 13% 29.71 in 3.1 mi NW 12.7 mph - N/A   Scattered Clouds
4:00 PM 100.4 °F 41.0 °F 13% 29.71 in 3.1 mi NW 13.8 mph - N/A   Scattered Clouds
4:30 PM 100.4 °F 39.2 °F 12% 29.71 in 3.1 mi WNW 12.7 mph - N/A   Scattered Clouds
5:00 PM 100.4 °F 39.2 °F 12% 29.71 in 3.1 mi WNW 11.5 mph - N/A   Scattered Clouds
5:30 PM 96 °F 38 °F 7% 29.70 in 2 mi WNW 10.4 mph - -   Widespread Dust
5:30 PM 98.6 °F 37.4 °F 12% 29.71 in 3.1 mi WNW 10.4 mph - N/A   Unknown
6:00 PM 95.0 °F 39.2 °F 14% 29.71 in 3.1 mi WNW 5.8 mph - N/A   Unknown
6:30 PM 91.4 °F 42.8 °F 18% 29.71 in 3.1 mi West 4.6 mph - N/A   Unknown
7:00 PM 87.8 °F 41.0 °F 19% 29.71 in 3.1 mi West 4.6 mph - N/A   Haze
7:30 PM 84.2 °F 41.0 °F 22% 29.74 in 3.1 mi West 3.5 mph - N/A   Haze
8:00 PM 82.4 °F 42.8 °F 25% 29.74 in 3.1 mi Calm Calm - N/A   Haze
8:30 PM 80 °F 49 °F 23% 29.77 in 2 mi Calm Calm - -   Haze
8:30 PM 80.6 °F 48.2 °F 32% 29.77 in 3.1 mi Calm Calm - N/A   Haze
9:00 PM 77.0 °F 48.2 °F 36% 29.77 in 3.1 mi Calm Calm - N/A   Haze
10:00 PM 75.2 °F 46.4 °F 36% 29.77 in 3.1 mi Calm Calm - N/A   Haze
11:00 PM 73.4 °F 48.2 °F 41% 29.77 in 2.5 mi Calm Calm - N/A   Haze
11:30 PM 72 °F 54 °F 42% 29.78 in 2 mi Calm Calm - -   Haze